STARLINK-31568, 59412

Orbit data source: Space-Track

STARLINK-31568, 59412 is a payload satellite owned by SpaceX/Seattle (US) in LEO that was launched on Fri, 05 Apr 2024 UTC via an FALCON 9 launch vehicle from the Air Force Eastern Test Range (AFETR). Payload-class satellites include a variety of spacecraft equipped with specific instruments for various scientific and technological missions. These include communications satellites like Starlink; space stations such as the ISS; scientific satellites like the Hubble; Earth observation satellites from companies like Planet Labs, Umbra, and HawkEye 360; GPS; miniature CubeSats for education and research; and military/defense satellites.

Loading next visibility...
Identifier
59412, 2024-064Q
Orbit
LEO
Country
Flag of USUS
Related business
Manufacturer
SpaceX/Seattle
Mission
Operational Commercial Communications
Bus & Motor
STARLINK V2M, Unknown motor
Mass
730 kg wet, ~700 kg dry
Launch date (UTC)
2024-04-05 (2 years ago)
Launch vehicle
FALCON 9
Launch site
Air Force Eastern Test Range (AFETR)
Object type
Payload
Rocket body
Debris
Shape & HBR
Box + 2 Pan, 17.7 m
Radar Cross Section
33.884 m², Large (>1 m²)

Expand to show TLE details & history
Last TLE update: 2 days ago

TLE from 2 days ago
0 STARLINK-31568
1 59412U 24064Q   26171.34394324  .00000842  00000-0  40135-4 0  9997
2 59412  43.0007 196.5854 0001263 271.7493  88.3214 15.27577681124923
Epoch: 2026-06-20T08:15Z
TLE epoch observation values (Epoch: 2026-06-20T08:15:16.695Z)
Latitude
-0.00004°
Longitude
164.20588°
Altitude
482.806 km
Speed
7.626 km/s
True Right ascension
13h 06m 20s
True Declination
0° 00' 00"
Sunlit
Object was in daylight at epoch
Visualization orbit readout
Latitude
Unknown
Longitude
Unknown
Altitude
Unknown
Speed
Unknown
Apparent Right ascension
Unknown
Apparent Declination
Unknown
Sunlit
N/A
Visualization observer readout
Local Sidereal Time
21:25:00
Azimuth
Unknown
Elevation
Unknown
Doppler factor
Unknown
Orbital elements
Apogee altitude
485.868 km
Perigee altitude
484.134 km
Semi-major axis
6,863.138 km
Eccentricity
0.00013
Inclination
43.0007°
RAAN
196.5854°
Arg. of periapsis
271.7493°
True anomaly
88.33587°
Mean anomaly
88.3214°
Eccentric anomaly
88.32863°
Mean motion
3.81732 °/min
Orbital period
94.31 mins
BSTAR
0.000040135
Loading maneuver chart data...
Computing Atmospheric mass density...
Loading historical data...
Loading historical data...
Loading historical data...
Loading historical data...
Loading historical data...
Loading historical data...
Loading historical data...

Documentation

Showing up to 5 results
|